Overview Statistics Trail Chart Weather Telemetry Raw packets
 

This is the latest recevied weather packets stored in our database for station/object W4UWO. If no packets are shown the sender has not sent any weather packets the latest 10 day(s).

<< 13 14 15 16 17 18 19 >>
Time Temp. Humidity Pressure Rain* Wind** Luminosity Snow
1788530035 30.56° C 65% 1018.2 hPa 0 mm - 125 W/m² -
1788529732 30.56° C 66% 1018.4 hPa 0 mm - 121 W/m² -
1788529431 30° C 68% 1018.4 hPa 0 mm - 304 W/m² -
1788529131 30° C 69% 1018.1 hPa 0 mm - 248 W/m² -
1788528826 30° C 69% 1018.1 hPa 0 mm - 123 W/m² -
1788528521 30° C 70% 1018.2 hPa 0 mm - 263 W/m² -
1788528216 29.44° C 70% 1018 hPa 0 mm - 246 W/m² -
1788527916 29.44° C 71% 1018 hPa 0 mm - 228 W/m² -
1788527612 28.89° C 72% 1017.9 hPa 0 mm - 212 W/m² -
1788527312 28.33° C 73% 1018.2 hPa 0 mm - 198 W/m² -
1788527011 27.78° C 75% 1018.2 hPa 0 mm - 182 W/m² -
1788526706 27.22° C 78% 1018 hPa 0 mm - 168 W/m² -
1788526402 26.67° C 78% 1018.1 hPa 0 mm - 152 W/m² -
1788526101 26.67° C 79% 1018.1 hPa 0 mm - 135 W/m² -
1788525799 26.67° C 79% 1018 hPa 0 mm - 124 W/m² -
1788525499 26.67° C 80% 1018.1 hPa 0 mm - 111 W/m² -
1788525194 26.11° C 81% 1018.1 hPa 0 mm - 99 W/m² -
1788524889 26.11° C 82% 1018 hPa 0 mm - 88 W/m² -
1788524589 25.56° C 83% 1018 hPa 0 mm - 78 W/m² -
1788524284 25° C 84% 1017.8 hPa 0 mm - 60 W/m² -
1788523980 25° C 86% 1017.7 hPa 0 mm - 52 W/m² -
1788523676 24.44° C 87% 1017.8 hPa 0 mm - 45 W/m² -
1788523372 25° C 86% 1017.7 hPa 0 mm - 38 W/m² -
1788523067 24.44° C 87% 1017.7 hPa 0 mm - 32 W/m² -
1788522762 23.89° C 89% 1017.5 hPa 0 mm - 26 W/m² -

* Rain latest hour (hover to see other rain measurements)
** Current wind speed in m/s (hover to see current wind gust speed)